Time,TemperatureF,DewpointF,PressureIn,WindDirection,WindDirectionDegrees,WindSpeedMPH,WindSpeedGustMPH,Humidity,HourlyPrecipIn,Conditions,Clouds,dailyrainin,SoftwareType,DateUTC
2013-08-05 00:08:00,63.1,58.0,29.94,WNW,295,0.0,4.0,84,0.00,,,0.00,weatherlink.com 1.10,2013-08-05 07:08:00,
2013-08-05 00:24:00,62.9,58.0,29.94,WNW,301,0.0,2.0,85,0.00,,,0.00,weatherlink.com 1.10,2013-08-05 07:24:00,
2013-08-05 00:38:00,62.7,58.0,29.94,West,281,0.0,2.0,85,0.00,,,0.00,weatherlink.com 1.10,2013-08-05 07:38:00,
2013-08-05 00:54:00,62.6,58.0,29.94,WNW,293,2.0,2.0,85,0.00,,,0.00,weatherlink.com 1.10,2013-08-05 07:54:00,
2013-08-05 01:08:00,62.8,58.0,29.93,WNW,288,1.0,3.0,85,0.00,,,0.00,weatherlink.com 1.10,2013-08-05 08:08:00,
2013-08-05 01:24:00,62.6,58.0,29.93,NW,304,3.0,4.0,85,0.00,,,0.00,weatherlink.com 1.10,2013-08-05 08:24:00,
2013-08-05 01:39:00,62.7,59.0,29.93,WNW,292,0.0,3.0,86,0.00,,,0.00,weatherlink.com 1.10,2013-08-05 08:39:00,
2013-08-05 01:54:00,62.8,59.0,29.93,West,263,2.0,4.0,86,0.00,,,0.00,weatherlink.com 1.10,2013-08-05 08:54:00,
2013-08-05 02:24:00,62.6,58.0,29.93,WNW,301,3.0,4.0,86,0.00,,,0.00,weatherlink.com 1.10,2013-08-05 09:24:00,
2013-08-05 02:39:00,62.5,58.0,29.93,NNW,332,0.0,3.0,86,0.00,,,0.00,weatherlink.com 1.10,2013-08-05 09:39:00,
2013-08-05 02:54:00,62.5,58.0,29.93,West,259,0.0,1.0,86,0.00,,,0.00,weatherlink.com 1.10,2013-08-05 09:54:00,
2013-08-05 03:09:00,62.4,58.0,29.93,West,280,0.0,1.0,86,0.00,,,0.00,weatherlink.com 1.10,2013-08-05 10:09:00,
2013-08-05 03:24:00,62.5,58.0,29.93,West,266,0.0,3.0,86,0.00,,,0.00,weatherlink.com 1.10,2013-08-05 10:24:00,
2013-08-05 03:39:00,62.4,58.0,29.93,West,262,0.0,1.0,86,0.00,,,0.00,weatherlink.com 1.10,2013-08-05 10:39:00,
2013-08-05 03:54:00,62.5,58.0,29.93,SSW,208,1.0,3.0,86,0.00,,,0.00,weatherlink.com 1.10,2013-08-05 10:54:00,
2013-08-05 04:09:00,62.6,59.0,29.93,WSW,255,0.0,1.0,87,0.00,,,0.00,weatherlink.com 1.10,2013-08-05 11:09:00,
2013-08-05 04:23:00,62.7,59.0,29.92,West,269,0.0,4.0,86,0.00,,,0.00,weatherlink.com 1.10,2013-08-05 11:23:00,
2013-08-05 04:39:00,63.0,59.0,29.93,West,274,1.0,2.0,87,0.00,,,0.00,weatherlink.com 1.10,2013-08-05 11:39:00,
2013-08-05 05:09:00,63.0,59.0,29.93,SW,223,0.0,3.0,86,0.00,,,0.00,weatherlink.com 1.10,2013-08-05 12:09:00,
2013-08-05 05:38:00,62.9,59.0,29.93,NNW,328,1.0,2.0,86,0.00,,,0.00,weatherlink.com 1.10,2013-08-05 12:38:00,
2013-08-05 05:54:00,63.0,59.0,29.94,NNW,328,0.0,1.0,86,0.00,,,0.00,weatherlink.com 1.10,2013-08-05 12:54:00,
2013-08-05 06:24:00,63.1,59.0,29.95,SSW,208,2.0,3.0,86,0.00,,,0.00,weatherlink.com 1.10,2013-08-05 13:24:00,
2013-08-05 06:39:00,63.1,59.0,29.95,SE,129,1.0,5.0,86,0.00,,,0.00,weatherlink.com 1.10,2013-08-05 13:39:00,
2013-08-05 06:54:00,63.0,59.0,29.95,SE,130,0.0,0.0,86,0.00,,,0.00,weatherlink.com 1.10,2013-08-05 13:54:00,
2013-08-05 07:09:00,63.2,59.0,29.96,ESE,122,2.0,3.0,86,0.00,,,0.00,weatherlink.com 1.10,2013-08-05 14:09:00,
2013-08-05 07:39:00,63.0,59.0,29.96,SW,214,0.0,4.0,86,0.00,,,0.00,weatherlink.com 1.10,2013-08-05 14:39:00,
2013-08-05 07:54:00,63.1,59.0,29.96,SW,222,0.0,0.0,86,0.00,,,0.00,weatherlink.com 1.10,2013-08-05 14:54:00,
2013-08-05 08:09:00,63.3,59.0,29.96,SW,233,1.0,2.0,86,0.00,,,0.00,weatherlink.com 1.10,2013-08-05 15:09:00,
2013-08-05 08:24:00,63.4,59.0,29.97,SW,235,0.0,2.0,86,0.00,,,0.00,weatherlink.com 1.10,2013-08-05 15:24:00,
2013-08-05 08:39:00,63.5,59.0,29.97,SE,143,1.0,3.0,85,0.00,,,0.00,weatherlink.com 1.10,2013-08-05 15:39:00,
2013-08-05 08:54:00,63.7,59.0,29.97,SSE,158,1.0,4.0,85,0.00,,,0.00,weatherlink.com 1.10,2013-08-05 15:54:00,
2013-08-05 09:24:00,64.5,59.0,29.97,SSW,192,1.0,2.0,82,0.00,,,0.00,weatherlink.com 1.10,2013-08-05 16:24:00,
2013-08-05 09:39:00,65.4,59.0,29.97,SSE,164,1.0,4.0,81,0.00,,,0.00,weatherlink.com 1.10,2013-08-05 16:39:00,
2013-08-05 10:09:00,68.2,60.0,29.97,NW,309,0.0,3.0,75,0.00,,,0.00,weatherlink.com 1.10,2013-08-05 17:09:00,
2013-08-05 10:24:00,68.5,60.0,29.97,West,271,2.0,4.0,74,0.00,,,0.00,weatherlink.com 1.10,2013-08-05 17:24:00,
2013-08-05 10:39:00,69.6,60.0,29.96,West,279,1.0,4.0,71,0.00,,,0.00,weatherlink.com 1.10,2013-08-05 17:39:00,
2013-08-05 10:54:00,71.8,61.0,29.96,WSW,258,2.0,5.0,68,0.00,,,0.00,weatherlink.com 1.10,2013-08-05 17:54:00,
2013-08-05 11:09:00,73.3,60.0,29.96,WSW,247,2.0,3.0,64,0.00,,,0.00,weatherlink.com 1.10,2013-08-05 18:09:00,
2013-08-05 11:25:00,75.1,61.0,29.96,SE,138,3.0,7.0,61,0.00,,,0.00,weatherlink.com 1.10,2013-08-05 18:25:00,
2013-08-05 11:40:00,74.2,60.0,29.96,WSW,252,3.0,7.0,61,0.00,,,0.00,weatherlink.com 1.10,2013-08-05 18:40:00,
2013-08-05 11:55:00,73.5,61.0,29.96,South,174,4.0,8.0,64,0.00,,,0.00,weatherlink.com 1.10,2013-08-05 18:55:00,
2013-08-05 12:10:00,74.3,61.0,29.96,SSW,198,8.0,8.0,63,0.00,,,0.00,weatherlink.com 1.10,2013-08-05 19:10:00,
2013-08-05 12:25:00,73.9,60.0,29.96,SSW,203,2.0,8.0,63,0.00,,,0.00,weatherlink.com 1.10,2013-08-05 19:25:00,
2013-08-05 12:40:00,73.9,60.0,29.96,SE,125,5.0,8.0,63,0.00,,,0.00,weatherlink.com 1.10,2013-08-05 19:40:00,
2013-08-05 13:10:00,75.0,61.0,29.95,SSE,148,5.0,9.0,61,0.00,,,0.00,weatherlink.com 1.10,2013-08-05 20:10:00,
2013-08-05 14:25:00,76.9,61.0,29.93,SW,220,3.0,10.0,58,0.00,,,0.00,weatherlink.com 1.10,2013-08-05 21:25:00,
2013-08-05 14:40:00,76.0,60.0,29.92,SE,141,5.0,10.0,58,0.00,,,0.00,weatherlink.com 1.10,2013-08-05 21:40:00,
2013-08-05 14:55:00,76.9,60.0,29.93,SE,135,8.0,11.0,57,0.00,,,0.00,weatherlink.com 1.10,2013-08-05 21:55:00,
2013-08-05 15:10:00,76.1,60.0,29.91,SSE,155,7.0,9.0,58,0.00,,,0.00,weatherlink.com 1.10,2013-08-05 22:10:00,
2013-08-05 15:25:00,77.4,59.0,29.91,SSE,159,5.0,8.0,54,0.00,,,0.00,weatherlink.com 1.10,2013-08-05 22:25:00,
2013-08-05 15:40:00,78.4,60.0,29.90,SSW,199,5.0,8.0,53,0.00,,,0.00,weatherlink.com 1.10,2013-08-05 22:40:00,
2013-08-05 15:55:00,80.2,61.0,29.89,SSW,206,2.0,5.0,52,0.00,,,0.00,weatherlink.com 1.10,2013-08-05 22:55:00,
2013-08-05 16:10:00,81.8,60.0,29.89,SW,231,1.0,4.0,48,0.00,,,0.00,weatherlink.com 1.10,2013-08-05 23:10:00,
2013-08-05 16:25:00,82.4,60.0,29.88,West,281,4.0,6.0,46,0.00,,,0.00,weatherlink.com 1.10,2013-08-05 23:25:00,
2013-08-05 16:40:00,81.3,60.0,29.88,WSW,250,4.0,7.0,48,0.00,,,0.00,weatherlink.com 1.10,2013-08-05 23:40:00,
2013-08-05 16:55:00,81.2,60.0,29.88,NNW,335,9.0,9.0,48,0.00,,,0.00,weatherlink.com 1.10,2013-08-05 23:55:00,
2013-08-05 17:10:00,80.5,60.0,29.88,West,274,1.0,7.0,49,0.00,,,0.00,weatherlink.com 1.10,2013-08-06 00:10:00,
2013-08-05 17:25:00,80.3,60.0,29.88,WSW,248,7.0,8.0,50,0.00,,,0.00,weatherlink.com 1.10,2013-08-06 00:25:00,
2013-08-05 17:40:00,79.3,60.0,29.88,WNW,290,2.0,7.0,52,0.00,,,0.00,weatherlink.com 1.10,2013-08-06 00:40:00,
2013-08-05 17:55:00,78.6,60.0,29.88,WSW,249,1.0,8.0,53,0.00,,,0.00,weatherlink.com 1.10,2013-08-06 00:55:00,
2013-08-05 18:40:00,76.6,60.0,29.89,West,262,3.0,6.0,56,0.00,,,0.00,weatherlink.com 1.10,2013-08-06 01:40:00,
2013-08-05 18:55:00,76.2,60.0,29.89,WNW,290,1.0,6.0,57,0.00,,,0.00,weatherlink.com 1.10,2013-08-06 01:55:00,
2013-08-05 19:10:00,75.3,59.0,29.89,WNW,293,1.0,6.0,58,0.00,,,0.00,weatherlink.com 1.10,2013-08-06 02:10:00,
2013-08-05 19:25:00,74.0,59.0,29.89,West,265,0.0,5.0,60,0.00,,,0.00,weatherlink.com 1.10,2013-08-06 02:25:00,
2013-08-05 19:40:00,72.2,59.0,29.90,WNW,300,1.0,6.0,64,0.00,,,0.00,weatherlink.com 1.10,2013-08-06 02:40:00,
2013-08-05 19:55:00,70.7,59.0,29.90,NW,318,1.0,5.0,66,0.00,,,0.00,weatherlink.com 1.10,2013-08-06 02:55:00,
2013-08-05 20:25:00,68.5,59.0,29.91,WSW,252,3.0,5.0,72,0.00,,,0.00,weatherlink.com 1.10,2013-08-06 03:25:00,
2013-08-05 20:40:00,67.7,59.0,29.92,WNW,288,0.0,5.0,74,0.00,,,0.00,weatherlink.com 1.10,2013-08-06 03:40:00,
2013-08-05 21:10:00,66.7,59.0,29.93,WNW,290,2.0,3.0,76,0.00,,,0.00,weatherlink.com 1.10,2013-08-06 04:10:00,
2013-08-05 21:25:00,66.2,59.0,29.93,West,281,2.0,4.0,78,0.00,,,0.00,weatherlink.com 1.10,2013-08-06 04:25:00,
2013-08-05 21:40:00,65.9,59.0,29.94,WNW,286,1.0,3.0,79,0.00,,,0.00,weatherlink.com 1.10,2013-08-06 04:40:00,
2013-08-05 21:55:00,65.5,59.0,29.94,NW,304,0.0,2.0,79,0.00,,,0.00,weatherlink.com 1.10,2013-08-06 04:55:00,
2013-08-05 22:10:00,65.2,59.0,29.94,WNW,297,0.0,1.0,80,0.00,,,0.00,weatherlink.com 1.10,2013-08-06 05:10:00,
2013-08-05 22:25:00,64.9,59.0,29.94,WNW,297,0.0,1.0,80,0.00,,,0.00,weatherlink.com 1.10,2013-08-06 05:25:00,
2013-08-05 22:40:00,64.7,59.0,29.94,West,276,0.0,2.0,81,0.00,,,0.00,weatherlink.com 1.10,2013-08-06 05:40:00,
2013-08-05 22:55:00,64.5,59.0,29.94,West,276,0.0,0.0,81,0.00,,,0.00,weatherlink.com 1.10,2013-08-06 05:55:00,
2013-08-05 23:10:00,64.0,58.0,29.94,West,276,0.0,0.0,81,0.00,,,0.00,weatherlink.com 1.10,2013-08-06 06:10:00,
2013-08-05 23:25:00,63.6,58.0,29.94,West,276,0.0,0.0,83,0.00,,,0.00,weatherlink.com 1.10,2013-08-06 06:25:00,
2013-08-05 23:40:00,62.8,58.0,29.94,West,276,0.0,0.0,84,0.00,,,0.00,weatherlink.com 1.10,2013-08-06 06:40:00,
2013-08-05 23:55:00,62.0,57.0,29.94,West,276,0.0,0.0,83,0.00,,,0.00,weatherlink.com 1.10,2013-08-06 06:55:00,